TimeAST,TemperatureF,Dew PointF,Humidity,Sea Level PressureIn,VisibilityMPH,Wind Direction,Wind SpeedMPH,Gust SpeedMPH,PrecipitationIn,Events,Conditions,WindDirDegrees,DateUTC
12:53 AM,79.0,75.0,88,29.91,10.0,East,6.9,-,N/A,,Clear,90,2012-11-07 04:53:00
1:53 AM,78.1,73.9,87,29.89,10.0,East,5.8,-,N/A,,Clear,90,2012-11-07 05:53:00
2:53 AM,77.0,73.0,88,29.87,10.0,East,4.6,-,N/A,,Clear,100,2012-11-07 06:53:00
3:53 AM,78.1,73.9,87,29.87,10.0,East,5.8,-,N/A,,Scattered Clouds,100,2012-11-07 07:53:00
4:53 AM,78.1,73.9,87,29.87,10.0,East,5.8,-,N/A,,Clear,90,2012-11-07 08:53:00
5:53 AM,78.1,73.9,87,29.89,10.0,East,3.5,-,N/A,,Clear,90,2012-11-07 09:53:00
6:53 AM,79.0,75.0,88,29.91,10.0,East,6.9,-,N/A,,Partly Cloudy,100,2012-11-07 10:53:00
7:53 AM,82.9,75.0,77,29.93,10.0,SE,6.9,-,N/A,,Clear,130,2012-11-07 11:53:00
8:53 AM,84.0,75.0,74,29.94,10.0,SE,10.4,-,N/A,,Partly Cloudy,140,2012-11-07 12:53:00
9:53 AM,84.9,75.9,74,29.95,10.0,SE,12.7,-,N/A,,Partly Cloudy,140,2012-11-07 13:53:00
10:53 AM,84.9,75.0,72,29.93,10.0,SE,13.8,-,N/A,,Clear,140,2012-11-07 14:53:00
11:53 AM,84.9,75.0,72,29.91,10.0,SE,11.5,-,N/A,,Clear,140,2012-11-07 15:53:00
12:53 PM,84.9,75.0,72,29.90,10.0,SE,9.2,-,N/A,,Clear,140,2012-11-07 16:53:00
1:53 PM,84.9,75.9,74,29.88,10.0,SE,12.7,-,N/A,,Partly Cloudy,140,2012-11-07 17:53:00
2:53 PM,84.9,75.0,72,29.87,10.0,SE,13.8,-,N/A,,Clear,140,2012-11-07 18:53:00
3:53 PM,84.9,75.0,72,29.87,10.0,SE,11.5,-,N/A,,Scattered Clouds,130,2012-11-07 19:53:00
4:53 PM,84.0,75.0,74,29.87,10.0,SE,12.7,-,N/A,,Partly Cloudy,140,2012-11-07 20:53:00
5:53 PM,82.9,75.0,77,29.88,10.0,SE,9.2,-,N/A,,Clear,130,2012-11-07 21:53:00
6:53 PM,82.0,75.0,79,29.90,10.0,SE,9.2,-,N/A,,Partly Cloudy,130,2012-11-07 22:53:00
7:53 PM,80.1,75.0,85,29.92,10.0,East,3.5,-,N/A,,Scattered Clouds,90,2012-11-07 23:53:00
8:53 PM,80.1,75.0,85,29.93,10.0,ENE,4.6,-,N/A,,Scattered Clouds,70,2012-11-08 00:53:00
9:53 PM,80.1,75.0,85,29.94,10.0,East,4.6,-,N/A,,Scattered Clouds,80,2012-11-08 01:53:00
10:53 PM,79.0,73.9,84,29.94,10.0,Calm,Calm,-,N/A,,Clear,0,2012-11-08 02:53:00
11:53 PM,79.0,73.9,84,29.93,10.0,East,3.5,-,N/A,,Clear,80,2012-11-08 03:53:00